Time,TemperatureF,DewpointF,PressureIn,WindDirection,WindDirectionDegrees,WindSpeedMPH,WindSpeedGustMPH,Humidity,HourlyPrecipIn,Conditions,Clouds,dailyrainin,SoftwareType,DateUTC
2013-02-05 00:00:00,55.3,50.5,29.85,ESE,123,0.0,0.0,84,0.00,RA,,0.00,WeatherDisplay:10.37,2013-02-05 06:00:00,
2013-02-05 00:05:00,55.0,50.6,29.85,ESE,122,0.0,0.0,85,0.00,RA,,0.00,WeatherDisplay:10.37,2013-02-05 06:05:00,
2013-02-05 00:10:00,54.8,50.4,29.85,ESE,122,0.0,0.0,85,0.00,CLR,,0.00,WeatherDisplay:10.37,2013-02-05 06:10:00,
2013-02-05 00:15:00,54.6,50.2,29.85,ESE,123,0.0,0.0,85,0.00,CLR,,0.00,WeatherDisplay:10.37,2013-02-05 06:15:00,
2013-02-05 00:20:00,54.5,50.1,29.85,ESE,123,0.0,0.0,85,0.00,CLR,,0.00,WeatherDisplay:10.37,2013-02-05 06:20:00,
2013-02-05 00:25:00,54.3,49.9,29.85,ESE,123,0.0,0.0,85,0.00,CLR,,0.00,WeatherDisplay:10.37,2013-02-05 06:25:00,
2013-02-05 00:30:00,54.3,50.2,29.84,ESE,122,0.0,0.0,86,0.00,CLR,,0.00,WeatherDisplay:10.37,2013-02-05 06:30:00,
2013-02-05 00:35:00,54.2,50.1,29.85,ESE,123,0.0,0.0,86,0.00,CLR,,0.00,WeatherDisplay:10.37,2013-02-05 06:35:00,
2013-02-05 00:40:00,54.1,50.0,29.85,ESE,122,0.0,0.0,86,0.00,CLR,,0.00,WeatherDisplay:10.37,2013-02-05 06:40:00,
2013-02-05 00:45:00,54.1,50.3,29.85,ESE,123,0.0,0.0,87,0.00,CLR,,0.00,WeatherDisplay:10.37,2013-02-05 06:45:00,
2013-02-05 00:50:00,54.3,50.8,29.85,ESE,122,0.0,0.0,88,0.00,CLR,,0.00,WeatherDisplay:10.37,2013-02-05 06:50:00,
2013-02-05 00:55:00,54.3,50.8,29.85,ESE,123,0.0,0.0,88,0.00,CLR,,0.00,WeatherDisplay:10.37,2013-02-05 06:55:00,
2013-02-05 01:00:00,54.2,50.7,29.85,ESE,123,0.0,0.0,88,0.00,CLR,,0.00,WeatherDisplay:10.37,2013-02-05 07:00:00,
2013-02-05 01:05:00,54.3,51.1,29.85,ESE,122,0.0,0.0,89,0.00,CLR,,0.00,WeatherDisplay:10.37,2013-02-05 07:05:00,
2013-02-05 01:10:00,54.3,51.1,29.85,ESE,122,0.0,0.0,89,0.00,CLR,,0.00,WeatherDisplay:10.37,2013-02-05 07:10:00,
2013-02-05 01:15:00,54.5,51.3,29.84,ESE,123,0.0,0.0,89,0.00,CLR,,0.00,WeatherDisplay:10.37,2013-02-05 07:15:00,
2013-02-05 01:20:00,54.8,51.9,29.85,ESE,123,0.0,0.0,90,0.00,CLR,,0.00,WeatherDisplay:10.37,2013-02-05 07:20:00,
2013-02-05 01:25:00,54.9,52.0,29.85,ESE,123,0.0,0.0,90,0.00,CLR,,0.00,WeatherDisplay:10.37,2013-02-05 07:25:00,
2013-02-05 01:30:00,55.1,52.2,29.85,ESE,122,0.0,0.0,90,0.00,CLR,,0.00,WeatherDisplay:10.37,2013-02-05 07:30:00,
2013-02-05 01:35:00,55.4,52.8,29.85,ESE,123,0.0,0.0,91,0.00,CLR,,0.00,WeatherDisplay:10.37,2013-02-05 07:35:00,
2013-02-05 01:40:00,55.5,52.9,29.85,ESE,123,0.0,0.0,91,0.00,CLR,,0.00,WeatherDisplay:10.37,2013-02-05 07:40:00,
2013-02-05 01:45:00,55.5,52.9,29.85,ESE,122,0.0,0.0,91,0.00,CLR,,0.00,WeatherDisplay:10.37,2013-02-05 07:45:00,
2013-02-05 01:50:00,55.2,52.3,29.85,ESE,122,0.0,0.0,90,0.00,CLR,,0.00,WeatherDisplay:10.37,2013-02-05 07:50:00,
2013-02-05 01:55:00,55.1,52.2,29.85,ESE,123,0.0,0.0,90,0.00,CLR,,0.00,WeatherDisplay:10.37,2013-02-05 07:55:00,
2013-02-05 02:00:00,54.9,52.0,29.85,ESE,123,0.0,0.0,90,0.00,CLR,,0.00,WeatherDisplay:10.37,2013-02-05 08:00:00,
2013-02-05 02:05:00,54.9,52.3,29.85,ESE,123,0.0,0.0,91,0.00,CLR,,0.00,WeatherDisplay:10.37,2013-02-05 08:05:00,
2013-02-05 02:10:00,55.1,52.5,29.85,ESE,122,0.0,0.0,91,0.00,CLR,,0.00,WeatherDisplay:10.37,2013-02-05 08:10:00,
2013-02-05 02:15:00,55.2,52.6,29.85,ESE,123,0.0,0.0,91,0.00,CLR,,0.00,WeatherDisplay:10.37,2013-02-05 08:15:00,
2013-02-05 02:20:00,55.4,52.8,29.84,ESE,123,0.0,0.0,91,0.00,CLR,,0.00,WeatherDisplay:10.37,2013-02-05 08:20:00,
2013-02-05 02:25:00,55.5,52.9,29.84,ESE,123,1.2,1.2,91,0.00,CLR,,0.00,WeatherDisplay:10.37,2013-02-05 08:25:00,
2013-02-05 02:30:00,55.8,53.5,29.84,ESE,123,0.0,0.0,92,0.00,CLR,,0.00,WeatherDisplay:10.37,2013-02-05 08:30:00,
2013-02-05 02:35:00,55.8,53.5,29.84,ESE,122,3.5,3.5,92,0.00,CLR,,0.00,WeatherDisplay:10.37,2013-02-05 08:35:00,
2013-02-05 02:40:00,55.7,53.4,29.84,ESE,123,0.0,0.0,92,0.00,CLR,,0.00,WeatherDisplay:10.37,2013-02-05 08:40:00,
2013-02-05 02:45:00,55.5,52.9,29.84,ESE,122,0.0,0.0,91,0.00,CLR,,0.00,WeatherDisplay:10.37,2013-02-05 08:45:00,
2013-02-05 02:50:00,55.3,52.7,29.84,ESE,122,0.0,0.0,91,0.00,CLR,,0.00,WeatherDisplay:10.37,2013-02-05 08:50:00,
2013-02-05 02:55:00,55.2,52.6,29.84,ESE,122,3.5,3.5,91,0.00,CLR,,0.00,WeatherDisplay:10.37,2013-02-05 08:55:00,
2013-02-05 03:00:00,55.3,53.0,29.84,ESE,123,0.0,0.0,92,0.00,CLR,,0.00,WeatherDisplay:10.37,2013-02-05 09:00:00,
2013-02-05 03:05:00,55.6,53.3,29.84,ESE,123,3.5,3.5,92,0.00,CLR,,0.00,WeatherDisplay:10.37,2013-02-05 09:05:00,
2013-02-05 03:10:00,55.5,53.2,29.84,ESE,123,3.5,3.5,92,0.00,CLR,,0.00,WeatherDisplay:10.37,2013-02-05 09:10:00,
2013-02-05 03:15:00,55.0,52.4,29.85,ESE,123,1.2,1.2,91,0.00,CLR,,0.00,WeatherDisplay:10.37,2013-02-05 09:15:00,
2013-02-05 03:20:00,54.6,52.0,29.84,ESE,122,0.0,0.0,91,0.00,CLR,,0.00,WeatherDisplay:10.37,2013-02-05 09:20:00,
2013-02-05 03:25:00,54.3,51.7,29.85,ESE,122,0.0,0.0,91,0.00,CLR,,0.00,WeatherDisplay:10.37,2013-02-05 09:25:00,
2013-02-05 03:30:00,54.0,51.4,29.85,ESE,122,0.0,0.0,91,0.00,CLR,,0.00,WeatherDisplay:10.37,2013-02-05 09:30:00,
2013-02-05 03:35:00,53.6,51.0,29.85,ESE,123,0.0,0.0,91,0.00,CLR,,0.00,WeatherDisplay:10.37,2013-02-05 09:35:00,
2013-02-05 03:40:00,53.3,50.7,29.84,ESE,123,0.0,0.0,91,0.00,CLR,,0.00,WeatherDisplay:10.37,2013-02-05 09:40:00,
2013-02-05 03:45:00,53.1,50.5,29.85,ESE,123,2.3,2.3,91,0.00,CLR,,0.00,WeatherDisplay:10.37,2013-02-05 09:45:00,
2013-02-05 03:50:00,52.9,50.3,29.85,ESE,123,0.0,0.0,91,0.00,CLR,,0.00,WeatherDisplay:10.37,2013-02-05 09:50:00,
2013-02-05 03:55:00,52.8,50.2,29.85,ESE,123,0.0,0.0,91,0.00,CLR,,0.00,WeatherDisplay:10.37,2013-02-05 09:55:00,
2013-02-05 04:00:00,52.6,50.0,29.85,ESE,122,3.5,3.5,91,0.00,CLR,,0.00,WeatherDisplay:10.37,2013-02-05 10:00:00,
2013-02-05 04:05:00,52.6,50.0,29.85,ESE,122,3.5,3.5,91,0.00,CLR,,0.00,WeatherDisplay:10.37,2013-02-05 10:05:00,
2013-02-05 04:10:00,52.7,50.4,29.85,ENE,75,5.8,5.8,92,0.00,CLR,,0.00,WeatherDisplay:10.37,2013-02-05 10:10:00,
2013-02-05 04:15:00,52.9,50.6,29.85,ENE,69,4.6,4.6,92,0.00,CLR,,0.00,WeatherDisplay:10.37,2013-02-05 10:15:00,
2013-02-05 04:20:00,53.2,50.9,29.85,NNE,30,4.6,4.6,92,0.00,CLR,,0.00,WeatherDisplay:10.37,2013-02-05 10:20:00,
2013-02-05 04:25:00,53.5,51.2,29.85,NNE,19,5.8,5.8,92,0.00,CLR,,0.00,WeatherDisplay:10.37,2013-02-05 10:25:00,
2013-02-05 04:30:00,53.6,51.3,29.85,NNE,18,3.5,3.5,92,0.00,CLR,,0.00,WeatherDisplay:10.37,2013-02-05 10:30:00,
2013-02-05 04:35:00,53.6,51.3,29.85,NNE,18,4.6,4.6,92,0.00,CLR,,0.00,WeatherDisplay:10.37,2013-02-05 10:35:00,
2013-02-05 04:40:00,53.5,50.9,29.85,NNE,19,4.6,4.6,91,0.00,CLR,,0.00,WeatherDisplay:10.37,2013-02-05 10:40:00,
2013-02-05 04:45:00,53.3,50.7,29.85,NNE,19,0.0,0.0,91,0.00,CLR,,0.00,WeatherDisplay:10.37,2013-02-05 10:45:00,
2013-02-05 04:50:00,53.1,50.5,29.85,NNE,19,0.0,0.0,91,0.00,CLR,,0.00,WeatherDisplay:10.37,2013-02-05 10:50:00,
2013-02-05 04:55:00,53.0,50.4,29.85,NNE,19,0.0,0.0,91,0.00,CLR,,0.00,WeatherDisplay:10.37,2013-02-05 10:55:00,
2013-02-05 05:00:00,52.9,50.3,29.85,NNE,19,0.0,0.0,91,0.00,CLR,,0.00,WeatherDisplay:10.37,2013-02-05 11:00:00,
2013-02-05 05:05:00,52.7,49.8,29.85,NNE,18,0.0,0.0,90,0.00,CLR,,0.00,WeatherDisplay:10.37,2013-02-05 11:05:00,
2013-02-05 05:10:00,52.7,50.1,29.85,NNE,18,1.2,0.0,91,0.00,CLR,,0.00,WeatherDisplay:10.37,2013-02-05 11:10:00,
2013-02-05 05:15:00,52.7,49.8,29.86,NNE,19,4.6,4.6,90,0.00,CLR,,0.00,WeatherDisplay:10.37,2013-02-05 11:15:00,
2013-02-05 05:20:00,52.1,49.3,29.86,NNE,17,5.8,5.8,90,0.00,CLR,,0.00,WeatherDisplay:10.37,2013-02-05 11:20:00,
2013-02-05 05:25:00,51.4,48.3,29.86,NNE,13,8.1,8.1,89,0.00,CLR,,0.00,WeatherDisplay:10.37,2013-02-05 11:25:00,
2013-02-05 05:30:00,50.9,47.8,29.86,North,9,4.6,4.6,89,0.00,CLR,,0.00,WeatherDisplay:10.37,2013-02-05 11:30:00,
2013-02-05 05:35:00,50.7,47.9,29.86,North,355,5.8,5.8,90,0.00,CLR,,0.00,WeatherDisplay:10.37,2013-02-05 11:35:00,
2013-02-05 05:40:00,50.8,48.0,29.86,North,355,10.4,10.4,90,0.00,CLR,,0.00,WeatherDisplay:10.37,2013-02-05 11:40:00,
2013-02-05 05:45:00,50.8,48.0,29.86,North,355,10.4,10.4,90,0.00,CLR,,0.00,WeatherDisplay:10.37,2013-02-05 11:45:00,
2013-02-05 05:50:00,50.9,48.1,29.86,North,355,3.5,3.5,90,0.00,CLR,,0.00,WeatherDisplay:10.37,2013-02-05 11:50:00,
2013-02-05 05:55:00,50.9,48.4,29.87,North,355,0.0,0.0,91,0.00,CLR,,0.00,WeatherDisplay:10.37,2013-02-05 11:55:00,
2013-02-05 06:00:00,50.9,48.4,29.87,North,355,0.0,0.0,91,0.00,CLR,,0.00,WeatherDisplay:10.37,2013-02-05 12:00:00,
2013-02-05 06:05:00,50.9,48.4,29.87,North,355,9.2,9.2,91,0.00,CLR,,0.00,WeatherDisplay:10.37,2013-02-05 12:05:00,
2013-02-05 06:10:00,51.0,48.5,29.87,North,355,4.6,4.6,91,0.00,CLR,,0.00,WeatherDisplay:10.37,2013-02-05 12:10:00,
2013-02-05 06:15:00,50.9,48.4,29.87,North,355,5.8,5.8,91,0.00,CLR,,0.00,WeatherDisplay:10.37,2013-02-05 12:15:00,
2013-02-05 06:20:00,50.9,48.4,29.87,North,355,5.8,5.8,91,0.00,CLR,,0.00,WeatherDisplay:10.37,2013-02-05 12:20:00,
2013-02-05 06:25:00,50.8,48.3,29.87,North,351,5.8,5.8,91,0.00,CLR,,0.00,WeatherDisplay:10.37,2013-02-05 12:25:00,
2013-02-05 06:30:00,50.6,47.8,29.88,North,350,4.6,4.6,90,0.00,CLR,,0.00,WeatherDisplay:10.37,2013-02-05 12:30:00,
2013-02-05 06:35:00,50.4,47.6,29.88,North,351,5.8,5.8,90,0.00,CLR,,0.00,WeatherDisplay:10.37,2013-02-05 12:35:00,
2013-02-05 06:40:00,50.3,47.5,29.88,North,350,9.2,9.2,90,0.00,CLR,,0.00,WeatherDisplay:10.37,2013-02-05 12:40:00,
2013-02-05 06:45:00,50.3,47.5,29.88,North,350,6.9,6.9,90,0.00,CLR,,0.00,WeatherDisplay:10.37,2013-02-05 12:45:00,
2013-02-05 06:50:00,50.3,47.2,29.88,North,349,9.2,9.2,89,0.00,CLR,,0.00,WeatherDisplay:10.37,2013-02-05 12:50:00,
2013-02-05 06:55:00,50.3,47.2,29.88,North,349,9.2,9.2,89,0.00,CLR,,0.00,WeatherDisplay:10.37,2013-02-05 12:55:00,
2013-02-05 07:00:00,50.2,46.8,29.89,North,350,11.5,11.5,88,0.00,CLR,,0.00,WeatherDisplay:10.37,2013-02-05 13:00:00,
2013-02-05 07:05:00,50.2,46.8,29.89,NNW,348,6.9,6.9,88,0.00,CLR,,0.00,WeatherDisplay:10.37,2013-02-05 13:05:00,
2013-02-05 07:10:00,50.2,46.5,29.89,North,349,9.2,9.2,87,0.00,CLR,,0.00,WeatherDisplay:10.37,2013-02-05 13:10:00,
2013-02-05 07:15:00,50.1,46.1,29.89,North,349,7.0,7.0,86,0.00,CLR,,0.00,WeatherDisplay:10.37,2013-02-05 13:15:00,
2013-02-05 07:20:00,50.0,46.0,29.89,NNW,348,10.4,10.4,86,0.00,CLR,,0.00,WeatherDisplay:10.37,2013-02-05 13:20:00,
2013-02-05 07:25:00,49.9,45.6,29.89,NNW,348,9.2,9.2,85,0.00,CLR,,0.00,WeatherDisplay:10.37,2013-02-05 13:25:00,
2013-02-05 07:30:00,49.9,45.6,29.89,North,349,5.8,5.8,85,0.00,CLR,,0.00,WeatherDisplay:10.37,2013-02-05 13:30:00,
2013-02-05 07:35:00,49.8,45.5,29.90,NNW,348,4.6,4.6,85,0.00,CLR,,0.00,WeatherDisplay:10.37,2013-02-05 13:35:00,
2013-02-05 07:40:00,49.8,45.2,29.90,NNW,346,0.0,0.0,84,0.00,CLR,,0.00,WeatherDisplay:10.37,2013-02-05 13:40:00,
2013-02-05 07:45:00,49.8,45.2,29.90,NNW,346,0.0,0.0,84,0.00,CLR,,0.00,WeatherDisplay:10.37,2013-02-05 13:45:00,
2013-02-05 07:50:00,49.9,45.3,29.90,NNW,346,3.5,3.5,84,0.00,CLR,,0.00,WeatherDisplay:10.37,2013-02-05 13:50:00,
2013-02-05 07:55:00,50.0,45.4,29.90,NNW,346,6.9,6.9,84,0.00,CLR,,0.00,WeatherDisplay:10.37,2013-02-05 13:55:00,
2013-02-05 08:00:00,50.1,45.1,29.91,NNW,346,4.6,4.6,83,0.00,CLR,,0.00,WeatherDisplay:10.37,2013-02-05 14:00:00,
2013-02-05 08:05:00,50.3,45.3,29.91,NNW,346,6.9,6.9,83,0.00,CLR,,0.00,WeatherDisplay:10.37,2013-02-05 14:05:00,
2013-02-05 08:10:00,50.4,45.1,29.91,NNW,346,9.2,9.2,82,0.00,CLR,,0.00,WeatherDisplay:10.37,2013-02-05 14:10:00,
2013-02-05 08:15:00,50.7,45.1,29.91,NNW,346,4.6,4.6,81,0.00,CLR,,0.00,WeatherDisplay:10.37,2013-02-05 14:15:00,
2013-02-05 08:20:00,51.2,45.2,29.92,NNW,345,6.0,6.0,80,0.00,CLR,,0.00,WeatherDisplay:10.37,2013-02-05 14:20:00,
2013-02-05 08:25:00,51.6,45.3,29.92,NNW,346,9.2,9.2,79,0.00,CLR,,0.00,WeatherDisplay:10.37,2013-02-05 14:25:00,
2013-02-05 08:30:00,51.9,45.3,29.92,NNW,347,6.9,6.9,78,0.00,CLR,,0.00,WeatherDisplay:10.37,2013-02-05 14:30:00,
2013-02-05 08:35:00,52.3,45.3,29.92,NNW,348,9.0,9.0,77,0.00,CLR,,0.00,WeatherDisplay:10.37,2013-02-05 14:35:00,
2013-02-05 08:40:00,52.6,45.2,29.92,NNW,345,6.9,6.9,76,0.00,CLR,,0.00,WeatherDisplay:10.37,2013-02-05 14:40:00,
2013-02-05 08:45:00,52.9,45.2,29.92,NNW,344,9.2,9.2,75,0.00,CLR,,0.00,WeatherDisplay:10.37,2013-02-05 14:45:00,
2013-02-05 08:50:00,53.3,45.6,29.92,NNW,344,6.9,6.9,75,0.00,CLR,,0.00,WeatherDisplay:10.37,2013-02-05 14:50:00,
2013-02-05 08:55:00,53.7,45.2,29.93,NNW,345,9.2,9.2,73,0.00,CLR,,0.00,WeatherDisplay:10.37,2013-02-05 14:55:00,
2013-02-05 09:00:00,54.3,45.1,29.93,NNW,347,12.0,12.0,71,0.00,CLR,,0.00,WeatherDisplay:10.37,2013-02-05 15:00:00,
2013-02-05 09:05:00,54.9,45.3,29.93,NNW,346,11.5,11.5,70,0.00,CLR,,0.00,WeatherDisplay:10.37,2013-02-05 15:05:00,
2013-02-05 09:10:00,55.4,45.8,29.93,NNW,346,5.8,5.8,70,0.00,CLR,,0.00,WeatherDisplay:10.37,2013-02-05 15:10:00,
2013-02-05 09:15:00,55.9,45.9,29.93,NNW,346,9.2,9.2,69,0.00,CLR,,0.00,WeatherDisplay:10.37,2013-02-05 15:15:00,
2013-02-05 09:20:00,56.6,46.2,29.93,NNW,346,6.9,6.9,68,0.01,RA,,0.01,WeatherDisplay:10.37,2013-02-05 15:20:00,
2013-02-05 09:25:00,57.3,46.0,29.93,NNW,343,11.5,11.5,66,0.01,RA,,0.01,WeatherDisplay:10.37,2013-02-05 15:25:00,
2013-02-05 09:30:00,58.0,46.3,29.93,NNW,340,8.1,8.1,65,0.01,CLR,,0.01,WeatherDisplay:10.37,2013-02-05 15:30:00,
2013-02-05 09:35:00,58.5,47.2,29.93,NNW,340,0.0,0.0,66,0.01,CLR,,0.01,WeatherDisplay:10.37,2013-02-05 15:35:00,
2013-02-05 09:40:00,59.3,47.1,29.94,NNW,340,0.0,0.0,64,0.01,CLR,,0.01,WeatherDisplay:10.37,2013-02-05 15:40:00,
2013-02-05 09:45:00,59.8,47.2,29.94,NNW,340,5.0,5.0,63,0.01,CLR,,0.01,WeatherDisplay:10.37,2013-02-05 15:45:00,
2013-02-05 09:50:00,60.6,46.6,29.94,North,350,4.6,4.6,60,0.01,CLR,,0.01,WeatherDisplay:10.37,2013-02-05 15:50:00,
2013-02-05 09:55:00,61.4,46.5,29.94,North,355,6.0,6.0,58,0.01,CLR,,0.01,WeatherDisplay:10.37,2013-02-05 15:55:00,
2013-02-05 10:00:00,62.0,47.0,29.94,North,355,0.0,0.0,58,0.01,CLR,,0.01,WeatherDisplay:10.37,2013-02-05 16:00:00,
2013-02-05 10:05:00,62.7,47.2,29.95,North,355,3.5,3.5,57,0.01,CLR,,0.01,WeatherDisplay:10.37,2013-02-05 16:05:00,
2013-02-05 10:10:00,63.2,46.8,29.95,North,351,4.6,4.6,55,0.01,CLR,,0.01,WeatherDisplay:10.37,2013-02-05 16:10:00,
2013-02-05 10:15:00,63.8,46.8,29.95,North,350,6.9,6.9,54,0.01,CLR,,0.01,WeatherDisplay:10.37,2013-02-05 16:15:00,
2013-02-05 10:20:00,64.5,47.0,29.95,North,349,3.5,3.5,53,0.00,CLR,,0.01,WeatherDisplay:10.37,2013-02-05 16:20:00,
2013-02-05 10:25:00,65.3,47.2,29.95,NNW,347,5.8,5.8,52,0.00,CLR,,0.01,WeatherDisplay:10.37,2013-02-05 16:25:00,
2013-02-05 10:30:00,66.0,47.3,29.95,NNW,348,3.5,3.5,51,0.00,CLR,,0.01,WeatherDisplay:10.37,2013-02-05 16:30:00,
2013-02-05 10:35:00,66.8,48.1,29.95,NNW,346,4.6,4.6,51,0.00,CLR,,0.01,WeatherDisplay:10.37,2013-02-05 16:35:00,
2013-02-05 10:40:00,67.4,45.3,29.95,North,349,4.6,4.6,45,0.00,CLR,,0.01,WeatherDisplay:10.37,2013-02-05 16:40:00,
2013-02-05 10:45:00,68.0,45.9,29.95,North,355,0.0,0.0,45,0.00,CLR,,0.01,WeatherDisplay:10.37,2013-02-05 16:45:00,
2013-02-05 10:50:00,68.7,45.3,29.95,North,355,0.0,0.0,43,0.00,CLR,,0.01,WeatherDisplay:10.37,2013-02-05 16:50:00,
2013-02-05 10:55:00,69.2,45.7,29.95,North,355,0.0,0.0,43,0.00,CLR,,0.01,WeatherDisplay:10.37,2013-02-05 16:55:00,
2013-02-05 11:00:00,69.8,45.7,29.95,North,351,0.0,0.0,42,0.00,CLR,,0.01,WeatherDisplay:10.37,2013-02-05 17:00:00,
2013-02-05 11:05:00,70.3,46.1,29.95,North,351,3.5,0.0,42,0.00,CLR,,0.01,WeatherDisplay:10.37,2013-02-05 17:05:00,
2013-02-05 11:10:00,70.7,45.2,29.95,North,350,3.5,0.0,40,0.00,CLR,,0.01,WeatherDisplay:10.37,2013-02-05 17:10:00,
2013-02-05 11:15:00,71.1,44.9,29.95,North,355,0.0,0.0,39,0.00,CLR,,0.01,WeatherDisplay:10.37,2013-02-05 17:15:00,
2013-02-05 11:20:00,71.6,42.5,29.95,NNW,340,4.6,4.6,35,0.00,CLR,,0.01,WeatherDisplay:10.37,2013-02-05 17:20:00,
2013-02-05 11:25:00,72.1,43.7,29.94,NW,326,6.9,6.9,36,0.00,CLR,,0.01,WeatherDisplay:10.37,2013-02-05 17:25:00,
2013-02-05 11:30:00,72.3,43.1,29.94,NW,322,9.2,9.2,35,0.00,CLR,,0.01,WeatherDisplay:10.37,2013-02-05 17:30:00,
2013-02-05 11:35:00,72.5,42.5,29.94,NW,325,5.8,5.8,34,0.00,CLR,,0.01,WeatherDisplay:10.37,2013-02-05 17:35:00,
2013-02-05 11:40:00,73.0,43.0,29.95,NNW,329,6.9,6.9,34,0.00,CLR,,0.01,WeatherDisplay:10.37,2013-02-05 17:40:00,
2013-02-05 11:45:00,73.2,42.4,29.95,NNW,327,6.9,6.9,33,0.00,CLR,,0.01,WeatherDisplay:10.37,2013-02-05 17:45:00,
2013-02-05 11:50:00,73.3,43.2,29.94,NW,316,9.2,9.2,34,0.00,CLR,,0.01,WeatherDisplay:10.37,2013-02-05 17:50:00,
2013-02-05 11:55:00,73.5,42.6,29.94,NW,315,3.5,3.5,33,0.00,CLR,,0.01,WeatherDisplay:10.37,2013-02-05 17:55:00,
2013-02-05 12:00:00,73.9,43.0,29.94,NW,315,0.0,0.0,33,0.00,CLR,,0.01,WeatherDisplay:10.37,2013-02-05 18:00:00,
2013-02-05 12:05:00,74.1,41.5,29.94,NW,317,0.0,0.0,31,0.00,CLR,,0.01,WeatherDisplay:10.37,2013-02-05 18:05:00,
2013-02-05 12:10:00,74.3,43.3,29.94,NW,317,3.5,3.5,33,0.00,CLR,,0.01,WeatherDisplay:10.37,2013-02-05 18:10:00,
2013-02-05 12:15:00,74.4,40.9,29.94,NW,318,5.8,5.8,30,0.00,CLR,,0.01,WeatherDisplay:10.37,2013-02-05 18:15:00,
2013-02-05 12:20:00,74.4,41.8,29.94,NW,318,0.0,0.0,31,0.00,CLR,,0.01,WeatherDisplay:10.37,2013-02-05 18:20:00,
2013-02-05 12:25:00,74.5,41.0,29.93,NW,318,0.0,0.0,30,0.00,CLR,,0.01,WeatherDisplay:10.37,2013-02-05 18:25:00,
2013-02-05 12:30:00,74.8,40.4,29.93,NW,318,0.0,0.0,29,0.00,CLR,,0.01,WeatherDisplay:10.37,2013-02-05 18:30:00,
2013-02-05 12:35:00,75.0,38.7,29.93,NW,319,3.5,3.5,27,0.00,CLR,,0.01,WeatherDisplay:10.37,2013-02-05 18:35:00,
2013-02-05 12:40:00,75.0,40.6,29.93,NW,313,5.8,5.8,29,0.00,CLR,,0.01,WeatherDisplay:10.37,2013-02-05 18:40:00,
2013-02-05 12:45:00,74.9,40.5,29.93,WNW,296,5.8,5.8,29,0.00,CLR,,0.01,WeatherDisplay:10.37,2013-02-05 18:45:00,
2013-02-05 12:50:00,75.1,40.7,29.92,WNW,296,0.0,0.0,29,0.00,CLR,,0.01,WeatherDisplay:10.37,2013-02-05 18:50:00,
2013-02-05 12:55:00,75.5,41.0,29.92,WNW,297,0.0,0.0,29,0.00,CLR,,0.01,WeatherDisplay:10.37,2013-02-05 18:55:00,
2013-02-05 13:00:00,75.9,40.4,29.91,NW,326,0.0,0.0,28,0.00,CLR,,0.01,WeatherDisplay:10.37,2013-02-05 19:00:00,
2013-02-05 13:05:00,76.4,40.9,29.91,NNW,336,11.5,11.5,28,0.00,CLR,,0.01,WeatherDisplay:10.37,2013-02-05 19:05:00,
2013-02-05 13:10:00,76.9,40.4,29.91,NNW,336,0.0,0.0,27,0.00,CLR,,0.01,WeatherDisplay:10.37,2013-02-05 19:10:00,
2013-02-05 13:15:00,77.2,39.6,29.90,NNW,337,4.6,4.6,26,0.00,CLR,,0.01,WeatherDisplay:10.37,2013-02-05 19:15:00,
2013-02-05 13:20:00,77.2,39.6,29.90,NNW,342,4.6,4.6,26,0.00,CLR,,0.01,WeatherDisplay:10.37,2013-02-05 19:20:00,
2013-02-05 13:25:00,77.3,38.7,29.90,NNW,342,0.0,0.3,25,0.00,CLR,,0.01,WeatherDisplay:10.37,2013-02-05 19:25:00,
2013-02-05 13:30:00,77.4,38.8,29.90,NNW,341,0.0,0.0,25,0.00,CLR,,0.01,WeatherDisplay:10.37,2013-02-05 19:30:00,
2013-02-05 13:35:00,77.7,40.1,29.89,NNW,346,0.0,1.2,26,0.00,CLR,,0.01,WeatherDisplay:10.37,2013-02-05 19:35:00,
2013-02-05 13:40:00,77.9,38.2,29.89,North,351,1.2,1.2,24,0.00,CLR,,0.01,WeatherDisplay:10.37,2013-02-05 19:40:00,
2013-02-05 13:45:00,78.0,38.3,29.89,North,350,2.3,2.3,24,0.00,CLR,,0.01,WeatherDisplay:10.37,2013-02-05 19:45:00,
2013-02-05 13:50:00,78.2,38.4,29.89,North,350,2.3,0.0,24,0.00,CLR,,0.01,WeatherDisplay:10.37,2013-02-05 19:50:00,
2013-02-05 13:55:00,78.3,39.6,29.89,North,355,0.0,0.2,25,0.00,CLR,,0.01,WeatherDisplay:10.37,2013-02-05 19:55:00,
2013-02-05 14:00:00,78.3,37.4,29.89,North,355,4.6,4.6,23,0.00,CLR,,0.01,WeatherDisplay:10.37,2013-02-05 20:00:00,
2013-02-05 14:05:00,78.2,37.4,29.89,North,355,2.3,2.3,23,0.00,CLR,,0.01,WeatherDisplay:10.37,2013-02-05 20:05:00,
2013-02-05 14:10:00,78.4,37.5,29.88,North,355,0.0,0.0,23,0.00,CLR,,0.01,WeatherDisplay:10.37,2013-02-05 20:10:00,
2013-02-05 14:15:00,78.5,36.5,29.88,North,355,5.8,5.8,22,0.00,CLR,,0.01,WeatherDisplay:10.37,2013-02-05 20:15:00,
2013-02-05 14:20:00,78.4,37.5,29.88,North,355,0.0,0.0,23,0.00,CLR,,0.01,WeatherDisplay:10.37,2013-02-05 20:20:00,
2013-02-05 14:25:00,78.4,36.4,29.88,North,355,3.5,3.5,22,0.00,CLR,,0.01,WeatherDisplay:10.37,2013-02-05 20:25:00,
2013-02-05 14:30:00,78.2,37.4,29.88,North,350,3.0,0.0,23,0.00,CLR,,0.01,WeatherDisplay:10.37,2013-02-05 20:30:00,
2013-02-05 14:35:00,78.1,37.3,29.88,North,351,3.5,3.5,23,0.00,CLR,,0.01,WeatherDisplay:10.37,2013-02-05 20:35:00,
2013-02-05 14:40:00,78.1,36.1,29.88,North,351,1.2,1.2,22,0.00,CLR,,0.01,WeatherDisplay:10.37,2013-02-05 20:40:00,
2013-02-05 14:45:00,78.3,36.3,29.87,North,349,2.3,2.3,22,0.00,CLR,,0.01,WeatherDisplay:10.37,2013-02-05 20:45:00,
2013-02-05 14:50:00,78.8,36.7,29.87,North,349,0.0,0.0,22,0.00,CLR,,0.01,WeatherDisplay:10.37,2013-02-05 20:50:00,
2013-02-05 14:55:00,79.1,37.0,29.86,North,349,0.0,0.0,22,0.00,CLR,,0.01,WeatherDisplay:10.37,2013-02-05 20:55:00,
2013-02-05 15:00:00,79.1,37.0,29.86,NNW,334,3.5,3.5,22,0.00,CLR,,0.01,WeatherDisplay:10.37,2013-02-05 21:00:00,
2013-02-05 15:05:00,79.1,38.1,29.86,NNW,334,0.0,0.0,23,0.00,CLR,,0.01,WeatherDisplay:10.37,2013-02-05 21:05:00,
2013-02-05 15:10:00,79.1,38.1,29.86,NNW,334,0.0,0.0,23,0.00,CLR,,0.01,WeatherDisplay:10.37,2013-02-05 21:10:00,
2013-02-05 15:15:00,79.4,37.2,29.86,NNW,334,0.0,0.0,22,0.00,CLR,,0.01,WeatherDisplay:10.37,2013-02-05 21:15:00,
2013-02-05 15:20:00,79.9,37.6,29.86,NNW,332,2.3,2.3,22,0.00,CLR,,0.01,WeatherDisplay:10.37,2013-02-05 21:20:00,
2013-02-05 15:25:00,80.3,36.8,29.86,WNW,286,4.6,4.6,21,0.00,CLR,,0.01,WeatherDisplay:10.37,2013-02-05 21:25:00,
2013-02-05 15:30:00,80.5,37.0,29.85,WNW,283,1.2,1.2,21,0.00,CLR,,0.01,WeatherDisplay:10.37,2013-02-05 21:30:00,
2013-02-05 15:35:00,80.4,36.9,29.85,West,281,0.0,0.0,21,0.00,CLR,,0.01,WeatherDisplay:10.37,2013-02-05 21:35:00,
2013-02-05 15:40:00,80.0,37.7,29.85,West,280,0.0,0.0,22,0.00,CLR,,0.01,WeatherDisplay:10.37,2013-02-05 21:40:00,
2013-02-05 15:45:00,79.7,38.6,29.85,West,280,0.0,0.0,23,0.00,CLR,,0.01,WeatherDisplay:10.37,2013-02-05 21:45:00,
2013-02-05 15:50:00,79.5,37.3,29.85,West,275,4.6,4.6,22,0.00,CLR,,0.01,WeatherDisplay:10.37,2013-02-05 21:50:00,
2013-02-05 15:55:00,79.5,37.3,29.85,West,271,3.5,0.0,22,0.00,CLR,,0.01,WeatherDisplay:10.37,2013-02-05 21:55:00,
2013-02-05 16:00:00,79.6,37.4,29.85,West,259,5.8,5.8,22,0.00,CLR,,0.01,WeatherDisplay:10.37,2013-02-05 22:00:00,
2013-02-05 16:05:00,79.5,37.3,29.85,West,259,3.5,3.5,22,0.00,CLR,,0.01,WeatherDisplay:10.37,2013-02-05 22:05:00,
2013-02-05 16:10:00,79.5,38.4,29.85,West,259,2.3,0.0,23,0.00,CLR,,0.01,WeatherDisplay:10.37,2013-02-05 22:10:00,
2013-02-05 16:15:00,79.4,38.4,29.85,West,259,3.5,3.5,23,0.00,CLR,,0.01,WeatherDisplay:10.37,2013-02-05 22:15:00,
2013-02-05 16:20:00,79.2,38.2,29.85,West,259,0.0,0.0,23,0.00,CLR,,0.01,WeatherDisplay:10.37,2013-02-05 22:20:00,
2013-02-05 16:25:00,79.1,39.2,29.85,West,259,0.0,0.0,24,0.00,CLR,,0.01,WeatherDisplay:10.37,2013-02-05 22:25:00,
2013-02-05 16:30:00,79.1,39.2,29.85,West,259,0.0,0.0,24,0.00,CLR,,0.01,WeatherDisplay:10.37,2013-02-05 22:30:00,
2013-02-05 16:35:00,79.0,39.1,29.85,West,259,0.0,0.0,24,0.00,CLR,,0.01,WeatherDisplay:10.37,2013-02-05 22:35:00,
2013-02-05 16:40:00,79.0,40.2,29.85,West,259,0.0,0.0,25,0.00,CLR,,0.01,WeatherDisplay:10.37,2013-02-05 22:40:00,
2013-02-05 16:45:00,78.8,40.0,29.85,West,259,0.0,0.0,25,0.00,CLR,,0.01,WeatherDisplay:10.37,2013-02-05 22:45:00,
2013-02-05 16:50:00,78.7,40.9,29.85,West,259,0.0,0.0,26,0.00,CLR,,0.01,WeatherDisplay:10.37,2013-02-05 22:50:00,
2013-02-05 16:55:00,78.5,42.7,29.85,West,259,0.0,0.0,28,0.00,CLR,,0.01,WeatherDisplay:10.37,2013-02-05 22:55:00,
2013-02-05 17:00:00,78.0,43.2,29.85,West,259,0.0,0.0,29,0.00,CLR,,0.01,WeatherDisplay:10.37,2013-02-05 23:00:00,
2013-02-05 17:05:00,77.7,42.9,29.85,West,259,0.0,0.0,29,0.00,CLR,,0.01,WeatherDisplay:10.37,2013-02-05 23:05:00,
2013-02-05 17:10:00,77.4,44.4,29.85,West,259,0.0,0.0,31,0.00,CLR,,0.01,WeatherDisplay:10.37,2013-02-05 23:10:00,
2013-02-05 17:15:00,77.4,44.4,29.85,West,259,0.0,0.0,31,0.00,CLR,,0.01,WeatherDisplay:10.37,2013-02-05 23:15:00,
2013-02-05 17:20:00,77.5,45.3,29.85,West,259,0.0,0.0,32,0.00,CLR,,0.01,WeatherDisplay:10.37,2013-02-05 23:20:00,
2013-02-05 17:25:00,77.7,45.5,29.85,West,259,0.0,0.0,32,0.00,CLR,,0.01,WeatherDisplay:10.37,2013-02-05 23:25:00,
2013-02-05 17:30:00,77.8,45.6,29.85,West,259,0.0,0.0,32,0.00,CLR,,0.01,WeatherDisplay:10.37,2013-02-05 23:30:00,
2013-02-05 17:35:00,77.9,44.8,29.85,West,259,0.0,0.0,31,0.00,CLR,,0.01,WeatherDisplay:10.37,2013-02-05 23:35:00,
2013-02-05 17:40:00,77.3,44.3,29.85,West,259,0.0,0.0,31,0.00,CLR,,0.01,WeatherDisplay:10.37,2013-02-05 23:40:00,
2013-02-05 17:45:00,76.8,45.5,29.85,West,259,0.0,0.0,33,0.00,CLR,,0.01,WeatherDisplay:10.37,2013-02-05 23:45:00,
2013-02-05 17:50:00,76.5,46.8,29.85,West,259,0.0,0.0,35,0.00,CLR,,0.01,WeatherDisplay:10.37,2013-02-05 23:50:00,
2013-02-05 17:55:00,76.5,46.8,29.85,West,259,0.0,0.0,35,0.00,CLR,,0.01,WeatherDisplay:10.37,2013-02-05 23:55:00,
2013-02-05 18:00:00,76.1,46.5,29.86,West,259,0.0,0.0,35,0.00,CLR,,0.01,WeatherDisplay:10.37,2013-02-06 00:00:00,
2013-02-05 18:05:00,75.5,43.6,29.86,West,259,1.2,0.0,32,0.00,CLR,,0.01,WeatherDisplay:10.37,2013-02-06 00:05:00,
2013-02-05 18:10:00,74.7,46.0,29.86,West,259,0.0,0.0,36,0.00,CLR,,0.01,WeatherDisplay:10.37,2013-02-06 00:10:00,
2013-02-05 18:15:00,74.1,45.4,29.87,West,259,0.0,0.0,36,0.00,CLR,,0.01,WeatherDisplay:10.37,2013-02-06 00:15:00,
2013-02-05 18:20:00,73.5,44.2,29.87,West,259,0.0,0.0,35,0.00,CLR,,0.01,WeatherDisplay:10.37,2013-02-06 00:20:00,
2013-02-05 18:25:00,72.9,42.9,29.87,West,259,0.0,0.0,34,0.00,CLR,,0.01,WeatherDisplay:10.37,2013-02-06 00:25:00,
2013-02-05 18:30:00,72.2,43.0,29.87,West,259,0.0,0.0,35,0.00,CLR,,0.01,WeatherDisplay:10.37,2013-02-06 00:30:00,
2013-02-05 18:35:00,71.4,42.3,29.86,West,259,0.0,0.0,35,0.00,CLR,,0.01,WeatherDisplay:10.37,2013-02-06 00:35:00,
2013-02-05 18:40:00,70.7,42.4,29.87,West,259,0.0,0.0,36,0.00,CLR,,0.01,WeatherDisplay:10.37,2013-02-06 00:40:00,
2013-02-05 18:45:00,70.3,42.8,29.87,West,259,0.0,0.0,37,0.00,CLR,,0.01,WeatherDisplay:10.37,2013-02-06 00:45:00,
2013-02-05 18:50:00,69.9,43.1,29.87,West,259,0.0,0.0,38,0.00,CLR,,0.01,WeatherDisplay:10.37,2013-02-06 00:50:00,
2013-02-05 18:55:00,69.5,42.8,29.88,West,259,0.0,0.0,38,0.00,CLR,,0.01,WeatherDisplay:10.37,2013-02-06 00:55:00,
2013-02-05 19:00:00,69.2,43.2,29.88,West,259,0.0,0.0,39,0.00,CLR,,0.01,WeatherDisplay:10.37,2013-02-06 01:00:00,
2013-02-05 19:05:00,69.0,43.0,29.88,West,259,0.0,0.0,39,0.00,CLR,,0.01,WeatherDisplay:10.37,2013-02-06 01:05:00,
2013-02-05 19:10:00,68.8,42.8,29.88,West,259,0.0,0.0,39,0.00,CLR,,0.01,WeatherDisplay:10.37,2013-02-06 01:10:00,
2013-02-05 19:15:00,68.7,43.4,29.88,West,259,0.0,0.0,40,0.00,CLR,,0.01,WeatherDisplay:10.37,2013-02-06 01:15:00,
2013-02-05 19:20:00,68.4,43.8,29.88,West,259,0.0,0.0,41,0.00,CLR,,0.01,WeatherDisplay:10.37,2013-02-06 01:20:00,
2013-02-05 19:25:00,68.1,43.5,29.88,West,259,0.0,0.0,41,0.00,CLR,,0.01,WeatherDisplay:10.37,2013-02-06 01:25:00,
2013-02-05 19:30:00,67.6,43.1,29.89,West,259,0.0,0.0,41,0.00,CLR,,0.01,WeatherDisplay:10.37,2013-02-06 01:30:00,
2013-02-05 19:35:00,67.2,43.3,29.89,West,259,0.0,0.0,42,0.00,CLR,,0.01,WeatherDisplay:10.37,2013-02-06 01:35:00,
2013-02-05 19:40:00,66.8,43.6,29.89,West,259,0.0,0.0,43,0.00,CLR,,0.01,WeatherDisplay:10.37,2013-02-06 01:40:00,
2013-02-05 19:45:00,66.5,43.3,29.89,West,259,0.0,0.0,43,0.00,CLR,,0.01,WeatherDisplay:10.37,2013-02-06 01:45:00,
2013-02-05 19:50:00,66.3,43.7,29.89,West,259,0.0,0.0,44,0.00,CLR,,0.01,WeatherDisplay:10.37,2013-02-06 01:50:00,
2013-02-05 19:55:00,66.1,42.9,29.89,West,259,0.0,0.0,43,0.00,CLR,,0.01,WeatherDisplay:10.37,2013-02-06 01:55:00,
2013-02-05 20:00:00,65.9,43.4,29.89,West,259,0.0,0.0,44,0.00,CLR,,0.01,WeatherDisplay:10.37,2013-02-06 02:00:00,
2013-02-05 20:05:00,65.7,43.2,29.89,West,259,0.0,0.0,44,0.00,CLR,,0.01,WeatherDisplay:10.37,2013-02-06 02:05:00,
2013-02-05 20:10:00,65.6,43.1,29.90,West,259,0.0,0.0,44,0.00,CLR,,0.01,WeatherDisplay:10.37,2013-02-06 02:10:00,
2013-02-05 20:15:00,65.4,42.9,29.90,West,259,0.0,0.0,44,0.00,CLR,,0.01,WeatherDisplay:10.37,2013-02-06 02:15:00,
2013-02-05 20:20:00,65.3,43.4,29.90,West,259,0.0,0.0,45,0.00,CLR,,0.01,WeatherDisplay:10.37,2013-02-06 02:20:00,
2013-02-05 20:25:00,65.0,43.7,29.90,West,259,0.0,0.0,46,0.00,CLR,,0.01,WeatherDisplay:10.37,2013-02-06 02:25:00,
2013-02-05 20:30:00,64.8,43.5,29.91,West,259,0.0,0.0,46,0.00,CLR,,0.01,WeatherDisplay:10.37,2013-02-06 02:30:00,
2013-02-05 20:35:00,64.6,43.9,29.91,West,259,0.0,0.0,47,0.00,CLR,,0.01,WeatherDisplay:10.37,2013-02-06 02:35:00,
2013-02-05 20:40:00,64.3,44.2,29.91,West,259,0.0,0.0,48,0.00,CLR,,0.01,WeatherDisplay:10.37,2013-02-06 02:40:00,
2013-02-05 20:45:00,64.1,44.5,29.92,West,259,0.0,0.0,49,0.00,CLR,,0.01,WeatherDisplay:10.37,2013-02-06 02:45:00,
2013-02-05 20:50:00,63.8,44.3,29.92,West,259,0.0,0.0,49,0.00,CLR,,0.01,WeatherDisplay:10.37,2013-02-06 02:50:00,
2013-02-05 20:55:00,63.6,44.6,29.92,West,259,0.0,0.0,50,0.00,CLR,,0.01,WeatherDisplay:10.37,2013-02-06 02:55:00,
2013-02-05 21:00:00,63.5,44.0,29.92,West,259,0.0,0.0,49,0.00,CLR,,0.01,WeatherDisplay:10.37,2013-02-06 03:00:00,
2013-02-05 21:05:00,63.4,44.4,29.92,West,259,0.0,0.0,50,0.00,CLR,,0.01,WeatherDisplay:10.37,2013-02-06 03:05:00,
2013-02-05 21:10:00,63.3,45.4,29.92,West,259,0.0,0.0,52,0.00,CLR,,0.01,WeatherDisplay:10.37,2013-02-06 03:10:00,
2013-02-05 21:15:00,63.2,44.2,29.92,West,259,0.0,0.0,50,0.00,CLR,,0.01,WeatherDisplay:10.37,2013-02-06 03:15:00,
2013-02-05 21:20:00,63.2,43.7,29.92,West,259,0.0,0.0,49,0.00,CLR,,0.01,WeatherDisplay:10.37,2013-02-06 03:20:00,
2013-02-05 21:25:00,63.2,43.7,29.92,West,259,0.0,0.0,49,0.00,CLR,,0.01,WeatherDisplay:10.37,2013-02-06 03:25:00,
2013-02-05 21:30:00,63.3,43.8,29.92,West,259,0.0,0.0,49,0.00,CLR,,0.01,WeatherDisplay:10.37,2013-02-06 03:30:00,
2013-02-05 21:35:00,63.4,43.9,29.92,West,259,0.0,0.0,49,0.00,CLR,,0.01,WeatherDisplay:10.37,2013-02-06 03:35:00,
2013-02-05 21:40:00,63.5,44.0,29.92,West,259,0.0,0.0,49,0.00,CLR,,0.01,WeatherDisplay:10.37,2013-02-06 03:40:00,
2013-02-05 21:45:00,63.5,44.0,29.93,West,259,0.0,0.0,49,0.00,CLR,,0.01,WeatherDisplay:10.37,2013-02-06 03:45:00,
2013-02-05 21:50:00,63.6,44.1,29.93,West,259,0.0,0.0,49,0.00,CLR,,0.01,WeatherDisplay:10.37,2013-02-06 03:50:00,
2013-02-05 21:55:00,63.6,44.1,29.93,West,259,0.0,0.0,49,0.00,CLR,,0.01,WeatherDisplay:10.37,2013-02-06 03:55:00,
2013-02-05 22:00:00,63.7,44.2,29.93,West,259,0.0,0.0,49,0.00,CLR,,0.01,WeatherDisplay:10.37,2013-02-06 04:00:00,
2013-02-05 22:05:00,63.8,44.3,29.93,West,259,0.0,0.0,49,0.00,CLR,,0.01,WeatherDisplay:10.37,2013-02-06 04:05:00,
2013-02-05 22:10:00,63.8,44.3,29.93,West,259,0.0,0.0,49,0.00,CLR,,0.01,WeatherDisplay:10.37,2013-02-06 04:10:00,
2013-02-05 22:15:00,63.9,44.4,29.93,West,259,0.0,0.0,49,0.00,CLR,,0.01,WeatherDisplay:10.37,2013-02-06 04:15:00,
2013-02-05 22:20:00,64.1,45.1,29.93,West,259,0.0,0.0,50,0.00,CLR,,0.01,WeatherDisplay:10.37,2013-02-06 04:20:00,
2013-02-05 22:25:00,64.2,45.2,29.93,West,259,0.0,0.0,50,0.00,CLR,,0.01,WeatherDisplay:10.37,2013-02-06 04:25:00,
2013-02-05 22:30:00,64.3,45.3,29.94,West,259,0.0,0.0,50,0.00,CLR,,0.01,WeatherDisplay:10.37,2013-02-06 04:30:00,
2013-02-05 22:35:00,64.4,45.3,29.95,West,259,0.0,0.0,50,0.00,CLR,,0.01,WeatherDisplay:10.37,2013-02-06 04:35:00,
2013-02-05 22:40:00,64.6,45.5,29.94,West,259,0.0,0.0,50,0.00,CLR,,0.01,WeatherDisplay:10.37,2013-02-06 04:40:00,
2013-02-05 22:46:00,64.8,45.7,29.95,West,259,0.0,0.0,50,0.00,CLR,,0.01,WeatherDisplay:10.37,2013-02-06 04:46:00,
2013-02-05 22:50:00,64.9,45.8,29.94,West,259,0.0,0.0,50,0.00,CLR,,0.01,WeatherDisplay:10.37,2013-02-06 04:50:00,
2013-02-05 22:55:00,65.1,46.5,29.94,West,259,0.0,0.0,51,0.00,CLR,,0.01,WeatherDisplay:10.37,2013-02-06 04:55:00,
2013-02-05 23:00:00,65.1,46.5,29.94,West,259,0.0,0.0,51,0.00,CLR,,0.01,WeatherDisplay:10.37,2013-02-06 05:00:00,
2013-02-05 23:05:00,65.1,46.5,29.95,West,259,0.0,0.0,51,0.00,CLR,,0.01,WeatherDisplay:10.37,2013-02-06 05:05:00,
2013-02-05 23:10:00,65.0,46.9,29.95,West,259,0.0,0.0,52,0.00,CLR,,0.01,WeatherDisplay:10.37,2013-02-06 05:10:00,
2013-02-05 23:15:00,64.9,47.4,29.96,West,259,0.0,0.0,53,0.00,CLR,,0.01,WeatherDisplay:10.37,2013-02-06 05:15:00,
2013-02-05 23:20:00,64.6,48.1,29.96,West,259,0.0,0.0,55,0.00,CLR,,0.01,WeatherDisplay:10.37,2013-02-06 05:20:00,
2013-02-05 23:25:00,64.4,48.8,29.95,West,259,0.0,0.0,57,0.00,CLR,,0.01,WeatherDisplay:10.37,2013-02-06 05:25:00,
2013-02-05 23:30:00,64.2,48.6,29.96,West,259,0.0,0.0,57,0.00,CLR,,0.01,WeatherDisplay:10.37,2013-02-06 05:30:00,
2013-02-05 23:35:00,64.0,49.8,29.96,West,259,0.0,0.0,60,0.00,CLR,,0.01,WeatherDisplay:10.37,2013-02-06 05:35:00,
2013-02-05 23:40:00,63.7,50.4,29.95,West,259,2.3,2.3,62,0.00,CLR,,0.01,WeatherDisplay:10.37,2013-02-06 05:40:00,
2013-02-05 23:45:00,63.3,50.9,29.95,West,259,0.0,0.0,64,0.00,CLR,,0.01,WeatherDisplay:10.37,2013-02-06 05:45:00,
2013-02-05 23:50:00,63.1,51.6,29.94,West,259,0.0,0.0,66,0.00,CLR,,0.01,WeatherDisplay:10.37,2013-02-06 05:50:00,
2013-02-05 23:55:00,62.8,51.7,29.94,West,259,0.0,0.0,67,0.00,CLR,,0.01,WeatherDisplay:10.37,2013-02-06 05:55:00,